TUI7CX EDDV-LGIR

Flight info

Callsign TUI7CX
Flight time N/A
Altitude 35000
Route POVEL4S POVEL Z94 GALMA M736 RELKO DCT ALOSO DCT ABERU DCT ARMUT DCT LAMSI DCT RADLY DCT PODET DCT KOMAR DCT EDALA DCT GACMO DCT POD DCT PINDO UL607 GIVIS T514 XAVIS
Aircraft B738/M-SDE2E3FGHIRWXY/LB1

Departure

Time 2026-05-05 12:56
Airport Hannover Airport (EDDV)

Arrival

Time N/A
Airport Heraklion International Nikos Kazantzakis Airport (LGIR)
Time Latitude Longitude Altitude Speed Heading
2026-05-05 12:41 52.45736 9.69632 177 ft 0 kts 27°
2026-05-05 12:49 52.45728 9.69625 177 ft 3 kts 27°
2026-05-05 12:49 52.45710 9.69610 177 ft 3 kts 27°
2026-05-05 12:49 52.45693 9.69595 177 ft 3 kts 43°
2026-05-05 12:50 52.45681 9.69570 177 ft 3 kts 73°
2026-05-05 12:50 52.45679 9.69547 177 ft 1 kts 92°
2026-05-05 12:50 52.45679 9.69545 177 ft 1 kts 92°
2026-05-05 12:52 52.45679 9.69549 177 ft 1 kts 92°
2026-05-05 12:53 52.45677 9.69596 177 ft 8 kts 92°
2026-05-05 12:53 52.45674 9.69714 177 ft 12 kts 92°
2026-05-05 12:53 52.45638 9.69825 178 ft 12 kts 158°
2026-05-05 12:53 52.45599 9.69938 178 ft 12 kts 95°
2026-05-05 12:54 52.45591 9.70291 178 ft 20 kts 91°
2026-05-05 12:54 52.45584 9.70531 178 ft 23 kts 92°
2026-05-05 12:54 52.45576 9.70803 178 ft 25 kts 92°
2026-05-05 12:55 52.45542 9.71065 178 ft 24 kts 134°
2026-05-05 12:55 52.45426 9.71099 184 ft 10 kts 182°
2026-05-05 12:55 52.45405 9.71057 190 ft 0 kts 272°
2026-05-05 12:56 52.45410 9.70834 183 ft 53 kts 272°
2026-05-05 12:56 52.45438 9.69811 180 ft 123 kts 272°
2026-05-05 12:56 52.45491 9.68099 298 ft 168 kts 274°
2026-05-05 12:56 52.45523 9.66037 1148 ft 168 kts 273°
2026-05-05 12:57 52.45561 9.64207 1850 ft 179 kts 274°
2026-05-05 12:57 52.45608 9.62064 2463 ft 201 kts 273°
2026-05-05 12:57 52.45677 9.59668 2957 ft 216 kts 272°
2026-05-05 12:57 52.45746 9.57192 3620 ft 218 kts 272°
2026-05-05 12:58 52.45691 9.54728 4447 ft 215 kts 251°
2026-05-05 12:58 52.44828 9.52739 5105 ft 221 kts 216°
2026-05-05 12:58 52.43507 9.51472 5876 ft 220 kts 211°
2026-05-05 12:58 52.42199 9.50227 6631 ft 220 kts 212°